Location: Unnamed
(47.6264°N, 122.3366°W)
Time: 15:45:59
(UTC-08:00)

DIWATA 2B (PO-101) - Pass Details

Date: 09 December 2023
Orbit: 576 x 590 km, 98.1° (Epoch: 29 February)

Event Time Altitude Azimuth Distance (km) Brightness Sun altitude
Rises 17:04:31 0° 4° (N) 2,843 ? -7.7°
Reaches altitude 10° 17:06:55 10° 352° (N) 1,937 ? -8.0°
Maximum altitude 17:10:28 27° 294° (WNW) 1,148 ? -8.6°
Drops below altitude 10° 17:14:00 10° 236° (WSW) 1,924 ? -9.1°
Sets 17:16:23 0° 225° (SW) 2,819 ? -9.5°
